Corpus Christi, TX

9:18 AM CST on February 11, 2016 (GMT -0600)
Corpus Christi International

Weather History for KCRP - March, 2012

Change the Weather History Date:

Tuesday, March 13, 2012

  Actual Average Record
Temperature  
Mean Temperature 77 °F 66 °F  
Max Temperature 84 °F 75 °F 94 °F (2005)
Min Temperature 69 °F 56 °F 28 °F (1951)
Degree Days  
Heating Degree Days 0 3  
Month to date heating degree days 23 47  
Since 1 July heating degree days 611 847  
Cooling Degree Days 12 3  
Month to date cooling degree days 70 38  
Year to date cooling degree days 215 114  
Growing Degree Days 26 (Base 50)    
Moisture  
Dew Point 69 °F    
Average Humidity 78    
Maximum Humidity 100    
Minimum Humidity 55    
Precipitation  
Precipitation 0.00 in 0.05 in 1.66 in (1945)
Month to date precipitation 0.36 0.85  
Year to date precipitation 4.90 4.32  
Snow  
Snow 0.00 in - - ()
Month to date snowfall 0.0  
Since 1 July snowfall 0.0  
Snow Depth 0.00 in    
Sea Level Pressure  
Sea Level Pressure 30.07 in    
Wind  
Wind Speed 16 mph (SSE)    
Max Wind Speed 26 mph    
Max Gust Speed 33 mph    
Visibility 6 miles    
Events Fog    
T = Trace of Precipitation, MM = Missing Value Source: NWS Daily Summary

Daily Weather History Graph

Daily Weather History Graph

Search for Another Location

Airport or City:

Trip Planner

Search our weather history database for the weather conditions in past years. The results will help you decide how hot, cold, wet, or windy it might be!

Date:

Astronomy

Mar. 13, 2012 Rise Set
Actual Time 7:41 AM CDT 7:37 PM CDT
Civil Twilight 7:17 AM CDT 8:01 PM CDT
Nautical Twilight 6:50 AM CDT 8:28 PM CDT
Astronomical Twilight 6:23 AM CDT 8:55 PM CDT
Moon 12:38 AM CDT (3/13) 11:28 AM CDT (3/13)
Length of Visible Light 12h 43m
Length of Day
11h 56m
Waning Gibbous, 65% of the Moon is Illuminated
Mar 13
Waning Gibbous
Mar 14
Last Quarter
Mar 22
New
Mar 30
First Quarter
Apr 6
Full

Hourly Weather History & Observations

Time (CDT) Temp. Heat Index Dew Point Humidity Pressure Visibility Wind Dir Wind Speed Gust Speed Precip Events Conditions
12:51 AM 70.0 °F - 68.0 °F 93% 30.07 in 5.0 mi SE 12.7 mph - N/A   Overcast
1:51 AM 70.0 °F - 68.0 °F 93% 30.07 in 3.0 mi SE 10.4 mph - N/A   Overcast
2:36 AM 69.8 °F - 68.0 °F 94% 30.07 in 1.0 mi SE 9.2 mph - N/A   Overcast
2:45 AM 69.8 °F - 68.0 °F 94% 30.07 in 0.8 mi SE 10.4 mph - N/A   Overcast
2:51 AM 69.1 °F - 68.0 °F 96% 30.07 in 0.2 mi SE 11.5 mph - N/A Fog Fog
3:51 AM 69.1 °F - 68.0 °F 96% 30.05 in 0.2 mi SE 9.2 mph - N/A Fog Fog
4:51 AM 69.1 °F - 68.0 °F 96% 30.03 in 0.2 mi SE 10.4 mph - N/A Fog Fog
5:48 AM 69.8 °F - 69.8 °F 100% 30.03 in 0.5 mi SE 9.2 mph - N/A Fog Fog
5:51 AM 70.0 °F - 69.1 °F 97% 30.03 in 0.5 mi SSE 9.2 mph - N/A Fog Fog
6:51 AM 70.0 °F - 69.1 °F 97% 30.04 in 0.5 mi SE 9.2 mph - N/A Fog Fog
7:51 AM 70.0 °F - 69.1 °F 97% 30.06 in 0.5 mi SSE 9.2 mph - N/A Fog Fog
8:10 AM 69.8 °F - 68.0 °F 94% 30.07 in 3.0 mi SSE 10.4 mph - N/A   Overcast
8:22 AM 69.8 °F - 68.0 °F 94% 30.07 in 3.0 mi South 9.2 mph - N/A   Mostly Cloudy
8:51 AM 70.0 °F - 69.1 °F 97% 30.08 in 3.0 mi SSE 9.2 mph - N/A   Mostly Cloudy
9:37 AM 71.6 °F - 69.8 °F 94% 30.10 in 7.0 mi South 13.8 mph - N/A   Mostly Cloudy
9:51 AM 73.0 °F - 70.0 °F 90% 30.11 in 7.0 mi SSE 12.7 mph - N/A   Mostly Cloudy
10:16 AM 73.4 °F - 69.8 °F 88% 30.11 in 9.0 mi SSE 15.0 mph - N/A   Mostly Cloudy
10:43 AM 75.2 °F - 71.6 °F 89% 30.12 in 10.0 mi SSE 16.1 mph - N/A   Mostly Cloudy
10:51 AM 75.9 °F - 71.1 °F 85% 30.12 in 10.0 mi SSE 15.0 mph - N/A   Mostly Cloudy
11:07 AM 78.8 °F - 71.6 °F 78% 30.12 in 10.0 mi SSE 18.4 mph - N/A   Mostly Cloudy
11:51 AM 79.0 °F - 70.0 °F 74% 30.12 in 10.0 mi South 18.4 mph 23.0 mph N/A   Mostly Cloudy
11:58 AM 78.8 °F - 69.8 °F 74% 30.12 in 10.0 mi South 17.3 mph - N/A   Mostly Cloudy
12:51 PM 82.0 °F 85.5 °F 69.1 °F 65% 30.11 in 10.0 mi North - - N/A   Mostly Cloudy
1:33 PM 84.2 °F 88.4 °F 69.8 °F 62% 30.10 in 10.0 mi SSE 21.9 mph 27.6 mph N/A   Mostly Cloudy
1:51 PM 82.0 °F 84.9 °F 68.0 °F 62% 30.09 in 10.0 mi SSE 23.0 mph - N/A   Mostly Cloudy
2:51 PM 82.0 °F 84.5 °F 66.9 °F 60% 30.05 in 10.0 mi SSE 23.0 mph - N/A   Scattered Clouds
3:51 PM 84.0 °F 86.5 °F 66.9 °F 56% 30.03 in 10.0 mi SSE 24.2 mph 31.1 mph N/A   Scattered Clouds
4:51 PM 82.0 °F 84.5 °F 66.9 °F 60% 30.02 in 10.0 mi SE 23.0 mph 31.1 mph N/A   Partly Cloudy
5:51 PM 80.1 °F 82.7 °F 68.0 °F 67% 30.01 in 10.0 mi SE 23.0 mph - N/A   Partly Cloudy
6:51 PM 77.0 °F - 68.0 °F 74% 30.02 in 10.0 mi SE 23.0 mph 27.6 mph N/A   Partly Cloudy
7:31 PM 73.4 °F - 68.0 °F 83% 30.02 in 10.0 mi SE 20.7 mph - N/A   Scattered Clouds
7:44 PM 73.4 °F - 68.0 °F 83% 30.03 in 10.0 mi SE 23.0 mph - N/A   Mostly Cloudy
7:51 PM 73.0 °F - 68.0 °F 84% 30.03 in 10.0 mi SE 19.6 mph - N/A   Mostly Cloudy
8:51 PM 72.0 °F - 69.1 °F 91% 30.04 in 10.0 mi SE 19.6 mph - N/A   Mostly Cloudy
9:51 PM 72.0 °F - 69.1 °F 91% 30.05 in 8.0 mi SE 18.4 mph - N/A   Overcast
10:51 PM 72.0 °F - 69.1 °F 91% 30.07 in 8.0 mi SE 19.6 mph - N/A   Overcast
11:51 PM 72.0 °F - 69.1 °F 91% 30.07 in 8.0 mi SE 20.7 mph - N/A   Overcast